TimeMDT,TemperatureF,Dew PointF,Humidity,Sea Level PressureIn,VisibilityMPH,Wind Direction,Wind SpeedMPH,Gust SpeedMPH,PrecipitationIn,Events,Conditions,WindDirDegrees,DateUTC
12:03 AM,35.6,5.0,28,30.24,10.0,West,24.2,35.7,N/A,,Clear,270,2012-10-09 06:03:00
12:45 AM,35.6,8.6,33,30.22,7.0,West,33.4,47.2,N/A,,Clear,270,2012-10-09 06:45:00
1:05 AM,35.6,8.6,33,30.23,10.0,West,32.2,44.9,N/A,,Clear,280,2012-10-09 07:05:00
2:05 AM,33.8,8.6,35,30.24,10.0,West,25.3,34.5,N/A,,Mostly Cloudy,270,2012-10-09 08:05:00
2:26 AM,33.8,10.4,38,30.24,10.0,West,20.7,26.5,N/A,,Mostly Cloudy,270,2012-10-09 08:26:00
2:46 AM,33.8,12.2,41,30.24,2.5,West,17.3,32.2,N/A,,Haze,270,2012-10-09 08:46:00
3:05 AM,33.8,12.2,41,30.23,5.0,West,23.0,31.1,N/A,,Haze,280,2012-10-09 09:05:00
3:26 AM,33.8,10.4,38,30.22,7.0,West,28.8,38.0,N/A,,Clear,270,2012-10-09 09:26:00
3:46 AM,35.6,10.4,35,30.23,10.0,West,31.1,47.2,N/A,,Clear,270,2012-10-09 09:46:00
4:05 AM,35.6,10.4,35,30.23,10.0,West,32.2,43.7,N/A,,Clear,270,2012-10-09 10:05:00
4:24 AM,35.6,10.4,35,30.23,10.0,West,29.9,43.7,N/A,,Clear,260,2012-10-09 10:24:00
4:43 AM,33.8,10.4,38,30.24,10.0,West,29.9,36.8,N/A,,Clear,270,2012-10-09 10:43:00
5:04 AM,33.8,10.4,38,30.24,10.0,West,24.2,36.8,N/A,,Clear,260,2012-10-09 11:04:00
5:24 AM,35.6,10.4,35,30.23,10.0,West,33.4,41.4,N/A,,Clear,270,2012-10-09 11:24:00
5:46 AM,35.6,12.2,38,30.23,10.0,West,33.4,41.4,N/A,,Clear,270,2012-10-09 11:46:00
6:06 AM,35.6,12.2,38,30.23,10.0,West,38.0,44.9,N/A,,Clear,260,2012-10-09 12:06:00
6:25 AM,35.6,12.2,38,30.24,7.0,West,32.2,41.4,N/A,,Clear,270,2012-10-09 12:25:00
6:45 AM,35.6,12.2,38,30.24,5.0,West,24.2,34.5,N/A,,Haze,270,2012-10-09 12:45:00
7:05 AM,33.8,12.2,41,30.25,7.0,West,24.2,35.7,N/A,,Clear,270,2012-10-09 13:05:00
7:25 AM,33.8,12.2,41,30.24,7.0,West,33.4,42.6,N/A,,Clear,270,2012-10-09 13:25:00
7:45 AM,33.8,12.2,41,30.26,7.0,West,19.6,28.8,N/A,,Clear,270,2012-10-09 13:45:00
8:03 AM,35.6,12.2,38,30.25,10.0,West,28.8,35.7,N/A,,Clear,270,2012-10-09 14:03:00
8:25 AM,35.6,12.2,38,30.27,10.0,West,17.3,25.3,N/A,,Clear,280,2012-10-09 14:25:00
8:44 AM,37.4,14.0,38,30.28,10.0,West,23.0,36.8,N/A,,Clear,270,2012-10-09 14:44:00
9:04 AM,37.4,14.0,38,30.26,10.0,West,31.1,39.1,N/A,,Scattered Clouds,270,2012-10-09 15:04:00
9:25 AM,37.4,12.2,36,30.28,10.0,West,25.3,44.9,N/A,,Scattered Clouds,280,2012-10-09 15:25:00
9:43 AM,37.4,12.2,36,30.28,10.0,West,26.5,43.7,N/A,,Scattered Clouds,280,2012-10-09 15:43:00
10:03 AM,37.4,12.2,36,30.27,10.0,West,33.4,44.9,N/A,,Clear,270,2012-10-09 16:03:00
10:26 AM,41.0,12.2,31,30.29,10.0,West,24.2,50.6,N/A,,Clear,270,2012-10-09 16:26:00
10:45 AM,41.0,12.2,31,30.28,10.0,West,35.7,50.6,N/A,,Scattered Clouds,270,2012-10-09 16:45:00
11:05 AM,41.0,12.2,31,30.29,10.0,West,31.1,49.5,N/A,,Scattered Clouds,260,2012-10-09 17:05:00
11:25 AM,41.0,10.4,29,30.26,10.0,West,38.0,50.6,N/A,,Scattered Clouds,270,2012-10-09 17:25:00
11:45 AM,41.0,10.4,29,30.27,10.0,West,32.2,51.8,N/A,,Clear,280,2012-10-09 17:45:00
12:05 PM,41.0,10.4,29,30.25,10.0,West,35.7,52.9,N/A,,Clear,270,2012-10-09 18:05:00
12:23 PM,42.8,8.6,25,30.27,10.0,West,35.7,50.6,N/A,,Clear,260,2012-10-09 18:23:00
12:42 PM,44.6,8.6,23,30.29,10.0,West,24.2,44.9,N/A,,Clear,270,2012-10-09 18:42:00
1:01 PM,44.6,8.6,23,30.27,10.0,West,29.9,46.0,N/A,,Clear,270,2012-10-09 19:01:00
1:21 PM,44.6,6.8,21,30.27,10.0,West,34.5,48.3,N/A,,Clear,280,2012-10-09 19:21:00
1:41 PM,44.6,6.8,21,30.27,10.0,West,35.7,52.9,N/A,,Clear,280,2012-10-09 19:41:00
2:01 PM,44.6,6.8,21,30.27,10.0,West,33.4,49.5,N/A,,Clear,270,2012-10-09 20:01:00
2:21 PM,44.6,6.8,21,30.29,10.0,West,25.3,42.6,N/A,,Clear,270,2012-10-09 20:21:00
2:43 PM,44.6,6.8,21,30.28,10.0,West,38.0,51.8,N/A,,Clear,270,2012-10-09 20:43:00
3:02 PM,44.6,5.0,20,30.30,10.0,West,15.0,43.7,N/A,,Clear,260,2012-10-09 21:02:00
3:24 PM,44.6,5.0,20,30.28,10.0,West,39.1,49.5,N/A,,Clear,260,2012-10-09 21:24:00
3:40 PM,46.4,5.0,18,30.29,10.0,West,33.4,42.6,N/A,,Clear,270,2012-10-09 21:40:00
4:04 PM,44.6,5.0,20,30.29,10.0,West,34.5,43.7,N/A,,Clear,270,2012-10-09 22:04:00
4:24 PM,46.4,5.0,18,30.31,10.0,West,27.6,38.0,N/A,,Clear,270,2012-10-09 22:24:00
4:44 PM,44.6,5.0,20,30.31,10.0,West,29.9,40.3,N/A,,Clear,270,2012-10-09 22:44:00
5:04 PM,44.6,5.0,20,30.32,10.0,West,21.9,36.8,N/A,,Clear,270,2012-10-09 23:04:00
5:24 PM,44.6,5.0,20,30.32,10.0,West,20.7,34.5,N/A,,Clear,280,2012-10-09 23:24:00
5:44 PM,44.6,5.0,20,30.32,10.0,West,27.6,39.1,N/A,,Clear,270,2012-10-09 23:44:00
6:04 PM,44.6,5.0,20,30.32,10.0,West,27.6,38.0,N/A,,Clear,270,2012-10-10 00:04:00
6:23 PM,44.6,8.6,23,30.33,10.0,West,21.9,34.5,N/A,,Clear,270,2012-10-10 00:23:00
6:45 PM,41.0,6.8,24,30.34,10.0,West,23.0,-,N/A,,Clear,260,2012-10-10 00:45:00
7:03 PM,41.0,6.8,24,30.34,10.0,West,24.2,31.1,N/A,,Clear,260,2012-10-10 01:03:00
7:26 PM,41.0,8.6,26,30.34,10.0,West,23.0,29.9,N/A,,Clear,270,2012-10-10 01:26:00
7:46 PM,41.0,8.6,26,30.35,10.0,West,20.7,31.1,N/A,,Clear,260,2012-10-10 01:46:00
8:06 PM,41.0,8.6,26,30.36,10.0,West,19.6,28.8,N/A,,Clear,260,2012-10-10 02:06:00
8:26 PM,41.0,8.6,26,30.36,10.0,West,23.0,31.1,N/A,,Clear,260,2012-10-10 02:26:00
8:46 PM,41.0,8.6,26,30.36,10.0,West,23.0,34.5,N/A,,Clear,270,2012-10-10 02:46:00
9:06 PM,41.0,8.6,26,30.38,10.0,West,18.4,31.1,N/A,,Clear,260,2012-10-10 03:06:00
9:26 PM,39.2,8.6,28,30.38,10.0,West,18.4,26.5,N/A,,Clear,260,2012-10-10 03:26:00
9:45 PM,37.4,10.4,33,30.38,10.0,West,15.0,20.7,N/A,,Clear,260,2012-10-10 03:45:00
10:05 PM,37.4,10.4,33,30.38,10.0,WSW,15.0,24.2,N/A,,Clear,250,2012-10-10 04:05:00
10:24 PM,37.4,10.4,33,30.39,10.0,West,16.1,25.3,N/A,,Clear,260,2012-10-10 04:24:00
10:43 PM,37.4,12.2,36,30.39,10.0,West,15.0,21.9,N/A,,Clear,260,2012-10-10 04:43:00
11:03 PM,37.4,12.2,36,30.39,10.0,West,12.7,21.9,N/A,,Clear,260,2012-10-10 05:03:00
11:23 PM,37.4,14.0,38,30.39,10.0,WSW,10.4,21.9,N/A,,Clear,250,2012-10-10 05:23:00
11:44 PM,37.4,14.0,38,30.39,10.0,WSW,10.4,19.6,N/A,,Clear,240,2012-10-10 05:44:00